WB2CMF Farmingville NY US current weather conditions

sailwx.info

Wind from 204

Air temperature -0.6° C
Dewpoint -1.7° C

Last reported at 2019-Dec-11 22:00 UTC.
Time now 2019-Dec-11 22:54 UTC

Location: N 40°50' W 073°04'.
View on Google Maps.

See reports from other nearby stations

  
Tides and Currents Weather Stations Pressure Air Temp Water Temp Dewpoint Dewpoint Depression Visibility Wind Speed Wind Dir Waves Ship Positions
date/time (UTC)wind fromknots sea level pressurealtimeterstation pressurevisibilityair tempwater tempwave heightnotes
2019-Dec-11 22:00 204 -0.6
2019-Dec-11 21:30 204 -0.0
2019-Dec-11 21:00 201 -0.0
2019-Dec-11 20:30 151 0.6
2019-Dec-11 20:00 335 0.6
2019-Dec-11 19:30 337 0.6
2019-Dec-11 19:00 188 1.1
2019-Dec-11 18:30 188 0.6
2019-Dec-11 18:00 188 0.6
2019-Dec-11 17:30 188 0.6
2019-Dec-11 17:00 188 -0.0
2019-Dec-11 16:30 188 -0.0
2019-Dec-11 16:00 188 -1.1
2019-Dec-11 15:30 188 -1.1
2019-Dec-11 15:00 188 -1.1
2019-Dec-11 14:30 188 -1.1
2019-Dec-11 14:00 188 -1.1
2019-Dec-11 13:30 188 -1.1
2019-Dec-11 13:00 188 -1.1
2019-Dec-11 12:30 188 -1.1
2019-Dec-11 12:00 016 -0.6
2019-Dec-11 11:30 296 -0.6
2019-Dec-11 11:00 281 -0.0
2019-Dec-11 10:30 349 -0.0
2019-Dec-11 10:00 020 0 gusting 2 0.6
2019-Dec-11 09:30 069 0 gusting 4 0.6
2019-Dec-11 09:00 020 0.6
2019-Dec-11 08:30 006 1.7
2019-Dec-11 08:00 033 0 gusting 3 2.8
2019-Dec-11 07:30 313 0 gusting 3 3.3
2019-Dec-11 07:00 025 0 gusting 3 3.9
2019-Dec-11 06:30 011 4.4
2019-Dec-11 06:00 329 0 gusting 2 5.0
2019-Dec-11 05:30 041 5.0
2019-Dec-11 05:00 292 5.6
2019-Dec-11 04:30 274 5.6
2019-Dec-11 04:00 276 3 gusting 6 6.1
2019-Dec-11 03:30 354 7.2
2019-Dec-11 03:00 333 1 gusting 6 8.3
2019-Dec-11 02:30 355 8.9
2019-Dec-11 02:00 342 9.4
2019-Dec-11 01:30 333 0 gusting 3 11.1
2019-Dec-11 01:00 009 11.1
2019-Dec-11 00:30 086 11.1
2019-Dec-11 00:00 080 11.1
2019-Dec-10 23:30 302 1 gusting 1 11.7
2019-Dec-10 23:00 075 0 gusting 1 11.7
2019-Dec-10 22:30 195 0 gusting 3 11.7
2019-Dec-10 22:00 198 11.7
2019-Dec-10 21:30 197 3 gusting 5 11.7
2019-Dec-10 21:00 191 1 gusting 4 12.2
2019-Dec-10 20:30 205 2 gusting 3 11.7
2019-Dec-10 20:00 202 0 gusting 3 11.7
2019-Dec-10 19:30 203 0 gusting 2 11.7
2019-Dec-10 19:00 204 11.7
2019-Dec-10 18:30 200 11.7
2019-Dec-10 18:00 198 0 gusting 4 11.7
2019-Dec-10 17:30 200 2 gusting 3 11.7
2019-Dec-10 17:00 200 1 gusting 3 11.7
2019-Dec-10 16:30 198 11.7
2019-Dec-10 16:00 199 2 gusting 4 11.7
2019-Dec-10 15:30 295 1 gusting 4 11.7
2019-Dec-10 15:00 207 0 gusting 6 11.7
2019-Dec-10 14:30 179 4 gusting 5 11.7
2019-Dec-10 14:00 195 1 gusting 4 11.7
2019-Dec-10 13:30 193 1 gusting 3 11.7
2019-Dec-10 13:00 210 1 gusting 4 11.7
2019-Dec-10 12:30 205 0 gusting 6 11.1
2019-Dec-10 12:00 205 2 gusting 3 11.1
2019-Dec-10 11:30 199 1 gusting 5 11.1
2019-Dec-10 11:00 210 1 gusting 4 11.1
2019-Dec-10 10:30 215 1 gusting 6 11.1
2019-Dec-10 10:00 196 2 gusting 6 11.1
2019-Dec-10 09:30 212 1 gusting 6 11.1
2019-Dec-10 09:00 195 1 gusting 6 11.1
2019-Dec-10 08:30 234 1 gusting 7 11.7
2019-Dec-10 08:00 194 3 gusting 6 11.7
2019-Dec-10 07:30 195 2 gusting 6 11.1
2019-Dec-10 07:00 208 3 gusting 7 11.7
2019-Dec-10 06:30 172 3 gusting 6 11.7
2019-Dec-10 06:00 203 1 gusting 8 11.7
2019-Dec-10 05:30 200 3 gusting 9 11.7
2019-Dec-10 05:00 235 3 gusting 9 11.7
2019-Dec-10 04:30 216 4 gusting 10 12.2
2019-Dec-10 04:00 210 4 gusting 9 12.2
2019-Dec-10 03:30 211 5 gusting 9 12.8
2019-Dec-10 03:00 060 0 gusting 11 13.3
2019-Dec-10 02:30 118 5 gusting 13 13.3
2019-Dec-10 02:00 160 6 gusting 12 13.3
2019-Dec-10 01:30 202 2 gusting 7 12.8
2019-Dec-10 01:00 186 4 gusting 10 12.2
2019-Dec-10 00:30 194 2 gusting 6 11.7
2019-Dec-10 00:00 194 2 gusting 6 11.1
2019-Dec-09 23:30 221 3 gusting 6 11.1
2019-Dec-09 23:00 201 1 gusting 4 10.6
2019-Dec-09 22:30 199 1 gusting 4 10.6
2019-Dec-09 22:00 204 3 gusting 4 11.1